Weather History for Evanston, WY

Change the Weather History Date:

Tuesday, February 4, 2014

  Actual Average Record
Temperature  
Mean Temperature 12 °F 22 °F  
Max Temperature 19 °F 29 °F 41 °F (1999)
Min Temperature 5 °F 14 °F 5 °F (2014)
Degree Days  
Heating Degree Days 53 43  
Month to date heating degree days 203 174  
Since 1 July heating degree days 4783 5003  
Cooling Degree Days 0 0  
Month to date cooling degree days 0 0  
Year to date cooling degree days 0 0  
Moisture  
Dew Point 9 °F    
Average Humidity 80    
Maximum Humidity 92    
Minimum Humidity 67    
Precipitation  
Precipitation T in 0.01 in 0.06 in (2004)
Month to date precipitation T 0.06  
Year to date precipitation 0.03 0.60  
Sea Level Pressure  
Sea Level Pressure 29.88 in    
Wind  
Wind Speed 10 mph (West)    
Max Wind Speed 15 mph    
Max Gust Speed 22 mph    
Visibility 6 miles    
Events Fog , Snow    
T = Trace of Precipitation, MM = Missing Value Source: NWS Daily Summary

Daily Weather History Graph

Daily Weather History Graph

Search for Another Location

Airport:

Trip Planner

Search our weather history database for the weather conditions in past years. The results will help you decide how hot, cold, wet, or windy it might be!

Date:

Astronomy

Feb. 04, 2014 Rise Set
Actual Time 7:32 AM MST 5:44 PM MST
Civil Twilight 7:03 AM MST 6:13 PM MST
Nautical Twilight 6:30 AM MST 6:46 PM MST
Astronomical Twilight 5:57 AM MST 7:18 PM MST
Moon 10:08 AM MST (2/4) 11:46 PM MST (2/4)
Length of Visible Light 11h 10m
Length of Day
10h 12m
Waxing Crescent, 29% of the Moon is Illuminated
Feb 4
Waxing Crescent
Feb 6
First Quarter
Feb 14
Full
Feb 22
Last Quarter
Mar 1
New

Hourly Weather History & Observations

Time (MST) Temp. Windchill Dew Point Humidity Pressure Visibility Wind Dir Wind Speed Gust Speed Precip Events Conditions
12:04 AM 19.0 °F 10.0 °F 15.1 °F 85% 29.71 in 3.0 mi WSW 6.9 mph - 0.00 in Snow Light Snow
12:20 AM 19.0 °F 9.0 °F 17.1 °F 92% 29.71 in 2.0 mi WSW 8.1 mph - 0.00 in Snow Light Snow
12:24 AM 19.0 °F 9.0 °F 17.1 °F 92% 29.70 in 1.5 mi SW 8.1 mph - 0.00 in Snow Light Snow
12:33 AM 19.0 °F 9.0 °F 17.1 °F 92% 29.70 in 0.8 mi WSW 8.1 mph - 0.00 in Snow Light Snow
12:44 AM 19.0 °F 9.0 °F 17.1 °F 92% 29.70 in 0.5 mi WSW 8.1 mph - 0.00 in Fog , Snow Snow
12:53 AM 19.0 °F 10.0 °F 17.1 °F 92% 29.80 in 0.8 mi SW 6.9 mph - 0.00 in Snow Light Snow
1:03 AM 19.0 °F 10.0 °F 17.1 °F 92% 29.70 in 0.8 mi SW 6.9 mph - 0.00 in Snow Light Snow
1:11 AM 19.0 °F 10.0 °F 17.1 °F 92% 29.70 in 0.8 mi WSW 6.9 mph - 0.00 in Snow Light Snow
1:30 AM 19.0 °F 10.0 °F 17.1 °F 92% 29.70 in 1.8 mi SW 6.9 mph - 0.00 in Snow Light Snow
1:33 AM 19.0 °F 11.1 °F 17.1 °F 92% 29.70 in 3.0 mi WSW 5.8 mph - 0.00 in Snow Light Snow
1:46 AM 19.0 °F 10.0 °F 17.1 °F 92% 29.70 in 1.8 mi West 6.9 mph - 0.00 in Snow Light Snow
1:49 AM 19.4 °F 4.1 °F 17.6 °F 93% 29.70 in 0.8 mi WNW 18.4 mph - 0.00 in Snow Light Snow
1:53 AM 17.1 °F 2.5 °F 15.1 °F 92% 29.81 in 0.5 mi NW 15.0 mph 21.9 mph 0.00 in Fog , Snow Snow
2:07 AM 16.0 °F -0.9 °F 14.0 °F 92% 29.71 in 1.0 mi NW 19.6 mph - 0.00 in Snow Light Snow
2:29 AM 16.0 °F 2.9 °F 12.9 °F 88% 29.72 in 1.2 mi NNW 11.5 mph - 0.00 in Snow Light Snow
2:53 AM 15.1 °F 1.8 °F 12.0 °F 88% 29.82 in 1.8 mi North 11.5 mph - 0.00 in Snow Light Snow
2:59 AM 15.1 °F 2.5 °F 12.0 °F 88% 29.72 in 2.0 mi North 10.4 mph - 0.00 in Snow Light Snow
3:12 AM 15.1 °F 3.3 °F 12.0 °F 88% 29.72 in 3.0 mi NNW 9.2 mph - 0.00 in Snow Light Snow
3:53 AM 14.0 °F 3.9 °F 9.0 °F 80% 29.84 in 10.0 mi NW 6.9 mph - 0.00 in   Overcast
4:53 AM 12.0 °F 0.5 °F 6.1 °F 77% 29.88 in 10.0 mi SW 8.1 mph - N/A   Overcast
5:53 AM 7.0 °F -6.6 °F 3.0 °F 84% 29.91 in 10.0 mi SW 9.2 mph - N/A   Clear
6:53 AM 5.0 °F -9.1 °F -0.9 °F 76% 29.94 in 10.0 mi WSW 9.2 mph - N/A   Scattered Clouds
7:53 AM 6.1 °F -6.8 °F -2.0 °F 69% 29.95 in 10.0 mi WSW 8.1 mph - N/A   Overcast
8:53 AM 7.0 °F -4.5 °F 1.9 °F 80% 29.98 in 10.0 mi WSW 6.9 mph - N/A   Overcast
9:53 AM 10.0 °F 0.4 °F 5.0 °F 80% 29.97 in 10.0 mi SSW 5.8 mph - N/A   Scattered Clouds
10:53 AM 12.0 °F 1.5 °F 5.0 °F 73% 29.99 in 10.0 mi WSW 6.9 mph - N/A   Scattered Clouds
11:53 AM 14.0 °F 0.5 °F 5.0 °F 67% 29.98 in 10.0 mi SW 11.5 mph - N/A   Clear
12:53 PM 17.1 °F 0.1 °F 7.0 °F 65% 29.95 in 10.0 mi WSW 20.7 mph - N/A   Mostly Cloudy
1:17 PM 15.1 °F -0.6 °F 7.0 °F 70% 29.82 in 1.5 mi WSW 16.1 mph - 0.00 in Snow Light Snow
1:26 PM 15.1 °F -1.6 °F 7.0 °F 70% 29.82 in 0.8 mi WSW 18.4 mph - 0.00 in Snow Light Snow
1:37 PM 16.0 °F 0.1 °F 7.0 °F 68% 29.82 in 1.8 mi West 17.3 mph - 0.00 in Snow Light Snow
1:40 PM 15.1 °F -0.1 °F 6.1 °F 68% 29.82 in 6.0 mi WSW 15.0 mph - 0.00 in Snow Light Snow
1:43 PM 14.0 °F -0.8 °F 5.0 °F 67% 29.82 in 9.0 mi WSW 13.8 mph - 0.00 in   Mostly Cloudy
1:53 PM 12.9 °F -2.2 °F 7.0 °F 77% 29.99 in 10.0 mi WSW 13.8 mph - 0.00 in   Mostly Cloudy
2:00 PM 12.9 °F -3.4 °F 8.1 °F 81% 29.82 in 10.0 mi WSW 16.1 mph - N/A   Mostly Cloudy
2:19 PM 14.0 °F 2.0 °F 9.0 °F 80% 29.83 in 1.8 mi West 9.2 mph - 0.00 in Snow Light Snow
2:28 PM 14.0 °F -0.2 °F 8.1 °F 77% 29.83 in 3.0 mi West 12.7 mph - 0.00 in Snow Light Snow
2:53 PM 15.1 °F 1.8 °F 5.0 °F 64% 29.99 in 10.0 mi West 11.5 mph - 0.00 in   Overcast
3:53 PM 14.0 °F -3.0 °F 5.0 °F 67% 30.02 in 10.0 mi West 18.4 mph - 0.00 in   Mostly Cloudy
4:53 PM 14.0 °F 2.0 °F 5.0 °F 67% 30.04 in 10.0 mi West 9.2 mph - 0.00 in   Overcast
5:53 PM 12.0 °F -2.0 °F 3.9 °F 70% 30.10 in 10.0 mi West 11.5 mph - N/A   Overcast
6:33 PM 10.0 °F 1.8 °F 6.1 °F 84% 29.90 in 10.0 mi WNW 4.6 mph - N/A   Mostly Cloudy
6:44 PM 10.0 °F 1.8 °F 6.1 °F 84% 29.91 in 6.0 mi WNW 4.6 mph - N/A   Overcast
6:53 PM 9.0 °F -0.9 °F 6.1 °F 88% 30.15 in 2.0 mi NW 5.8 mph - 0.00 in Snow Light Snow
6:56 PM 10.0 °F 0.4 °F 6.1 °F 84% 29.90 in 1.5 mi NW 5.8 mph - 0.00 in Snow Light Snow
6:59 PM 10.0 °F 0.4 °F 6.1 °F 84% 29.90 in 2.0 mi NW 5.8 mph - 0.00 in Snow Light Snow
7:06 PM 10.0 °F -0.9 °F 6.1 °F 84% 29.91 in 7.0 mi WNW 6.9 mph - 0.00 in   Overcast
7:53 PM 9.0 °F -5.1 °F 3.9 °F 80% 30.16 in 10.0 mi West 10.4 mph - 0.00 in   Overcast
8:53 PM 5.0 °F -6.9 °F 1.0 °F 84% 30.20 in 10.0 mi SW 6.9 mph - N/A   Clear
9:53 PM 6.1 °F -5.6 °F 1.9 °F 83% 30.20 in 10.0 mi SW 6.9 mph - N/A   Overcast
10:53 PM 7.0 °F -3.3 °F 3.0 °F 84% 30.18 in 10.0 mi WSW 5.8 mph - N/A   Overcast
11:53 PM 7.0 °F -5.7 °F 1.9 °F 80% 30.18 in 10.0 mi WSW 8.1 mph - N/A   Overcast